Regional Weather Roundup
Issued by NWS

Home | Current Version | Previous Version | Graphics & Text | Print | Product List | Glossary On
Versions: 1 2 3 4 5 6 7 8 9 10 11 12 13 14 15 16 17 18 19 20 21 22 23 24 25 26 27 28 29 30 31 32 33 34 35 36 37 38 39 40 41 42 43 44 45 46 47 48 49 50
363
ASUS43 KBIS 202102
RWRND

NORTH DAKOTA REGIONAL WEATHER ROUNDUP
NATIONAL WEATHER SERVICE BISMARCK ND
300 PM CST MON FEB 20 2017

NOTE: "FAIR" INDICATES FEW OR NO CLOUDS BELOW 12,000 FEET WITH NO
SIGNIFICANT WEATHER AND/OR OBSTRUCTIONS TO VISIBILITY.


NDZ001>003-009>011-017-202200-
NORTHWEST NORTH DAKOTA

CITY           SKY/WX    TMP DP  RH WIND       PRES   REMARKS
WILLISTON      FAIR      46  31  55 W15       29.70R
MINOT          FAIR      49  36  61 W15       29.65F
MINOT AFB      SUNNY     42  37  80 W10       29.64F
$$

NDZ018>021-031>035-040>046-202200-
SOUTHWEST NORTH DAKOTA

CITY           SKY/WX    TMP DP  RH WIND       PRES   REMARKS
BISMARCK       FAIR      49  37  63 W9        29.72S
DICKINSON      FAIR      53  23  31 W17       29.70F
GARRISON         N/A     48  38  68 W12       29.67F
HETTINGER ARPT SUNNY     55  28  35 W18       29.76S
$$

NDZ004>008-012>016-024-026-027-054-202200-
NORTHEAST NORTH DAKOTA

CITY           SKY/WX    TMP DP  RH WIND       PRES   REMARKS
GRAND FORKS    LGT RAIN  37  32  82 W13       29.62R
GRND FRKS AFB  LGT RAIN  36  36  99 NW10      29.63R
DEVILS LAKE    CLOUDY    34  33  96 W17       29.65R
$$

NDZ022-023-025-028>030-036>039-047>053-202200-
SOUTHEAST NORTH DAKOTA

CITY           SKY/WX    TMP DP  RH WIND       PRES   REMARKS
FARGO          CLOUDY    40  38  93 NW14      29.62R
JAMESTOWN      FAIR      39  35  86 NW20      29.65S
$$





USA.gov is the U.S. government's official web portal to all federal, state and local government web resources and services.